BREEZE-M DEB, 36963

Orbit data source: Space-Track

BREEZE-M DEB, 36963 is space debris in HEO originally from a launch on Tue, 28 Feb 2006 UTC launched from the Tyuratam Missile And Space Complex (TTMTR). Debris objects in space refer to the collection of defunct objects orbiting the Earth. Examples of debris include non-operational satellites, rocket bodies, and fragments generated from explosions, collisions, or faulty payload assembly.

Loading next visibility...
Identifier
36963, 2006-006CV
Orbit
HEO
Country
Flag of CISCIS
Related business
Manufacturer
Khrunichev
Mission
Spacecraft
Bus & Motor
Unknown
Mass
Unknown
Launch date (UTC)
2006-02-28 (20 years ago)
Launch vehicle
Unknown
Launch site
Tyuratam Missile And Space Complex (TTMTR)
Object type
Payload
Rocket body
Debris
Shape & HBR
Unknown shape, 0.1 m
Radar Cross Section
Medium (>0.1 m² and <1 m²)

Expand to show TLE details & history
Last TLE update: 11 hours ago

TLE from 11 hours ago
0 BREEZE-M DEB
1 36963U 06006CV  26162.84584256  .00008385  00000-0  47540-2 0  9994
2 36963  51.5780  58.2026 4729408  32.8789 349.2804  5.94490846 31833
Epoch: 2026-06-11T20:18Z
TLE epoch observation values (Epoch: 2026-06-11T20:18:00.797Z)
Latitude
-0.00004°
Longitude
-146.4757°
Altitude
767.878 km
Speed
8.978 km/s
True Right ascension
03h 52m 50s
True Declination
0° 00' 00"
Sunlit
Object was in daylight at epoch
Visualization orbit readout
Latitude
Unknown
Longitude
Unknown
Altitude
Unknown
Speed
Unknown
Apparent Right ascension
Unknown
Apparent Declination
Unknown
Sunlit
N/A
Visualization observer readout
Local Sidereal Time
17:11:31
Azimuth
Unknown
Elevation
Unknown
Doppler factor
Unknown
Orbital elements
Apogee altitude
12,581.819 km
Perigee altitude
406.263 km
Semi-major axis
12,872.178 km
Eccentricity
0.47294
Inclination
51.578°
RAAN
58.2026°
Arg. of periapsis
32.8789°
True anomaly
327.18794°
Mean anomaly
349.2804°
Eccentric anomaly
340.02251°
Mean motion
1.48616 °/min
Orbital period
242.24 mins
BSTAR
0.004754
Loading maneuver chart data...
Computing Atmospheric mass density...
Loading historical data...
Loading historical data...
Loading historical data...
Loading historical data...
Loading historical data...
Loading historical data...
Loading historical data...

Documentation

Showing up to 5 results
|